0 ORBCOMM-X 1 21576U 91050C 24289.61949902 .00001155 00000-0 35926-3 0 9991 2 21576 98.3773 354.8472 0003396 187.2269 172.8873 14.42823533746849 0 ORBCOMM FM 1 1 23545U 95017A 24290.16262413 .00013219 00000-0 15966-2 0 9998 2 23545 69.9664 320.1377 0007904 320.8421 39.2157 14.83861215576570 0 ORBCOMM FM 2 1 23546U 95017B 24289.88861648 .00014045 00000-0 17021-2 0 9993 2 23546 69.9697 340.4665 0009860 321.3347 38.7097 14.83688423575820 0 ORBCOMM FM 8 1 25112U 97084A 24289.78810732 .00004851 00000-0 14492-2 0 9990 2 25112 45.0127 99.6105 0006751 105.8191 254.3404 14.43904048406027 0 ORBCOMM FM 10 1 25113U 97084B 24289.80706871 .00004069 00000-0 12258-2 0 9991 2 25113 45.0138 101.5261 0004011 77.0079 283.1220 14.43774427581170 0 ORBCOMM FM 11 1 25114U 97084C 24289.91097679 .00004496 00000-0 13549-2 0 9991 2 25114 45.0126 101.2561 0004857 75.6816 284.4574 14.43593854406152 0 ORBCOMM FM 12 1 25115U 97084D 24290.15172881 .00004598 00000-0 13856-2 0 9993 2 25115 45.0132 99.8560 0003888 79.9941 280.1348 14.43562541406229 0 ORBCOMM FM 9 1 25116U 97084E 24290.16751167 .00004701 00000-0 14175-2 0 9996 2 25116 45.0135 100.5211 0004705 58.7238 301.4073 14.43501931406227 0 ORBCOMM FM 5 1 25117U 97084F 24290.19147060 .00004631 00000-0 13821-2 0 9990 2 25117 45.0137 98.0905 0001990 116.2684 243.8372 14.44034750406254 0 ORBCOMM FM 6 1 25118U 97084G 24289.79755623 .00005352 00000-0 15859-2 0 9999 2 25118 45.0125 100.0228 0001754 143.1883 232.4529 14.44170235406170 0 ORBCOMM FM 7 1 25119U 97084H 24289.86581983 .00004464 00000-0 13327-2 0 9995 2 25119 45.0122 100.3470 0002303 93.8327 266.2787 14.44065416406192 0 ORBCOMM FM 3 1 25158U 98007B 24289.88989204 .00002266 00000-0 86121-3 0 9995 2 25158 107.9699 354.1692 0047755 313.4449 46.2722 14.33117836389022 0 ORBCOMM FM 4 1 25159U 98007C 24289.91863000 .00002554 00000-0 96188-3 0 9999 2 25159 107.9683 357.2766 0043488 310.7331 49.0035 14.33384815389202 0 ORBCOMM FM 17 1 25413U 98046A 24289.83431350 .00002206 00000-0 83371-3 0 9999 2 25413 44.9949 329.9634 0000848 341.8378 18.2438 14.33955430368084 0 ORBCOMM FM 18 1 25414U 98046B 24289.92811845 .00004070 00000-0 14071-2 0 9992 2 25414 44.9921 253.1013 0002415 122.3321 237.7761 14.37003248369090 0 ORBCOMM FM 19 1 25415U 98046C 24290.19360035 .00004106 00000-0 14240-2 0 9992 2 25415 44.9932 253.4729 0001382 99.3657 275.0214 14.36835357369290 0 ORBCOMM FM 20 1 25416U 98046D 24290.19010809 .00003358 00000-0 11918-2 0 9991 2 25416 44.9934 255.8841 0001521 316.2821 43.7905 14.36049253369214 0 ORBCOMM FM 16 1 25417U 98046E 24289.95726382 .00003986 00000-0 13701-2 0 9993 2 25417 44.9929 251.4091 0002128 151.7223 208.3740 14.37329843369099 0 ORBCOMM FM 15 1 25418U 98046F 24290.22444763 .00004313 00000-0 14879-2 0 9998 2 25418 44.9963 254.6024 0001715 160.7537 199.3375 14.37011916369304 0 ORBCOMM FM 14 1 25419U 98046G 24289.94822279 .00003826 00000-0 13187-2 0 9997 2 25419 44.9951 254.7603 0000557 127.8591 232.2307 14.37262835369055 0 ORBCOMM FM 13 1 25420U 98046H 24290.22138440 .00003955 00000-0 13867-2 0 9990 2 25420 44.9968 259.3311 0002770 128.5040 231.6056 14.36344456369275 0 ORBCOMM FM 21 1 25475U 98053A 24289.83693550 .00002762 00000-0 98670-3 0 9992 2 25475 45.0093 345.7488 0001433 262.2047 97.8638 14.36170893362104 0 ORBCOMM FM 22 1 25476U 98053B 24289.88734411 .00003109 00000-0 10889-2 0 9991 2 25476 45.0085 342.0593 0000561 8.6260 351.4597 14.36879275362117 0 ORBCOMM FM 23 1 25477U 98053C 24289.85978749 .00002667 00000-0 95314-3 0 9998 2 25477 45.0094 348.0083 0000584 290.4461 69.6324 14.36234936362257 0 ORBCOMM FM 24 1 25478U 98053D 24289.88604921 .00002935 00000-0 10347-2 0 9990 2 25478 45.0091 346.3422 0000844 268.4312 91.6439 14.36683966362299 0 ORBCOMM FM 25 1 25479U 98053E 24289.85423980 .00003335 00000-0 11694-2 0 9993 2 25479 45.0079 344.7455 0001689 119.9147 240.1869 14.36673632362587 0 ORBCOMM FM 26 1 25480U 98053F 24289.85977078 .00002528 00000-0 91124-3 0 9997 2 25480 45.0077 339.5866 0004188 139.9027 220.2130 14.35947481362519 0 ORBCOMM FM 27 1 25481U 98053G 24290.19129880 .00003928 00000-0 13688-2 0 9990 2 25481 45.0065 343.4071 0002398 264.7955 95.2619 14.36663285362607 0 ORBCOMM FM 28 1 25482U 98053H 24289.71631931 .00002979 00000-0 10427-2 0 9995 2 25482 45.0051 283.6343 0002490 181.8046 178.2793 14.36998911363178 0 ORBCOMM FM 30 1 25980U 99065A 24289.94565028 .00002362 00000-0 85200-3 0 9998 2 25980 45.0302 164.8632 0005675 223.9002 136.1396 14.36096536299328 0 ORBCOMM FM 31 1 25981U 99065B 24289.91247075 .00002316 00000-0 83704-3 0 9991 2 25981 45.0216 158.6125 0003060 250.1379 109.9139 14.36064642298871 0 ORBCOMM FM 32 1 25982U 99065C 24289.93390392 .00002624 00000-0 96004-3 0 9994 2 25982 45.0145 173.4281 0005135 253.7432 106.2850 14.35091684299499 0 ORBCOMM FM 33 1 25983U 99065D 24289.85737062 .00003573 00000-0 12010-2 0 9993 2 25983 45.0281 79.5026 0009080 263.2217 96.7599 14.38615174300860 0 ORBCOMM FM 36 1 25984U 99065E 24289.84623370 .00003248 00000-0 11405-2 0 9995 2 25984 45.0382 167.7054 0003339 141.6898 218.4188 14.36653343299850 0 ORBCOMM FM 35 1 25985U 99065F 24289.94753578 .00002133 00000-0 77654-3 0 9992 2 25985 45.0385 170.5303 0002976 260.4500 99.6012 14.35936924299661 0 ORBCOMM FM 34 1 25986U 99065G 24289.71098096 .00002371 00000-0 85761-3 0 9997 2 25986 45.0378 172.1946 0003108 194.3242 165.7518 14.35954225299740 0 ORBCOMM FM 38 1 33060U 08031A 24289.80984576 .00005676 00000-0 78602-3 0 9996 2 33060 48.4411 38.1218 0004398 62.7224 297.4138 14.79086827878544 0 ORBCOMM FM 41 1 33061U 08031B 24289.71158520 .00005186 00000-0 72606-3 0 9993 2 33061 48.4445 45.5951 0003755 44.6884 107.4513 14.78767661878026 0 ORBCOMM FM 29 1 33062U 08031C 24290.11373859 .00005660 00000-0 78979-3 0 9990 2 33062 48.4396 51.7047 0005431 48.8205 122.0195 14.78760213878387 0 ORBCOMM FM 39 1 33063U 08031D 24289.68955924 .00005185 00000-0 74628-3 0 9999 2 33063 48.4397 75.5251 0006573 21.4408 338.6780 14.77573806877619 0 ORBCOMM FM 37 1 33064U 08031E 24290.13228299 .00005157 00000-0 73855-3 0 9990 2 33064 48.4398 62.3560 0004892 41.6455 128.4997 14.77802753878247 0 ORBCOMM FM 40 1 33065U 08031F 24290.10670834 .00006986 00000-0 95170-3 0 9999 2 33065 48.4421 50.1491 0005979 52.5809 117.6662 14.79481570878425 0 VESSELSAT 1 1 37840U 11058C 24289.89028073 .00000559 00000-0 16039-3 0 9990 2 37840 19.9608 132.0142 0013685 19.8021 340.2913 14.11236837671983 0 ORBCOMM FM 109 1 40086U 14040A 24289.85383635 .00002267 00000-0 53248-3 0 9995 2 40086 47.0032 89.5651 0002681 263.9703 96.0877 14.57352915545415 0 ORBCOMM FM 107 1 40087U 14040B 24290.16370680 .00003082 00000-0 71116-3 0 9998 2 40087 47.0037 89.1092 0002223 243.1342 116.9316 14.57300166545575 0 ORBCOMM FM 106 1 40088U 14040C 24290.10680142 .00003701 00000-0 66950-3 0 9998 2 40088 47.0598 290.6538 0017834 10.7448 349.3820 14.68003634547803 0 ORBCOMM FM 111 1 40089U 14040D 24289.94195548 .00006863 00000-0 84324-3 0 9997 2 40089 47.0024 173.3832 0031770 106.2463 254.1932 14.83464294553922 0 ORBCOMM FM 104 1 40090U 14040E 24289.88965763 .00002020 00000-0 49440-3 0 9997 2 40090 47.0041 121.1346 0016992 171.0415 189.0775 14.55746157545012 0 ORBCOMM FM 103 1 40091U 14040F 24289.85121435 .00002250 00000-0 52988-3 0 9991 2 40091 47.0038 91.0038 0002754 240.9212 119.1398 14.57240129528458 0 ORBCOMM FM 114 1 41179U 15081A 24290.22366390 .00003484 00000-0 79990-3 0 9991 2 41179 47.0035 358.4470 0003099 299.9075 60.1502 14.57249500468926 0 ORBCOMM FM 119 1 41180U 15081B 24290.19972517 .00002785 00000-0 64723-3 0 9994 2 41180 46.9993 267.7857 0001587 347.3302 12.7543 14.57221423470128 0 ORBCOMM FM 105 1 41181U 15081C 24289.86890856 .00001254 00000-0 40316-3 0 9994 2 41181 47.0011 250.8959 0002455 300.5380 59.5258 14.44736025465413 0 ORBCOMM FM 110 1 41182U 15081D 24290.19999671 .00003813 00000-0 87202-3 0 9996 2 41182 47.0024 357.9432 0000222 112.5449 247.5460 14.57238229468920 0 ORBCOMM FM 118 1 41183U 15081E 24289.90377877 .00003220 00000-0 74224-3 0 9994 2 41183 47.0047 359.6861 0000571 125.8848 234.2090 14.57245501468808 0 ORBCOMM FM 112 1 41184U 15081F 24289.90306808 .00002208 00000-0 52102-3 0 9997 2 41184 46.9989 268.3820 0002178 336.5679 23.5106 14.57208594470026 0 ORBCOMM FM 113 1 41185U 15081G 24289.94875558 .00002147 00000-0 50775-3 0 9991 2 41185 47.0007 268.4577 0001796 352.7900 7.2959 14.57195408470015 0 ORBCOMM FM 115 1 41186U 15081H 24290.02024123 .00002364 00000-0 50727-3 0 9995 2 41186 46.9963 120.0065 0000572 292.0645 68.0181 14.61433855472046 0 ORBCOMM FM 108 1 41187U 15081J 24289.97119492 .00002692 00000-0 62680-3 0 9997 2 41187 47.0035 179.6064 0002530 255.0357 105.0249 14.57238099471160 0 ORBCOMM FM 117 1 41188U 15081K 24289.86884891 .00002625 00000-0 61202-3 0 9993 2 41188 46.9995 178.9327 0003114 270.9514 89.1014 14.57238818471192 0 ORBCOMM FM 116 1 41189U 15081L 24290.20127721 .00003009 00000-0 69618-3 0 9992 2 41189 47.0008 267.2006 0002510 349.0281 11.0549 14.57241192470122